| time (UTC) | temp F | wind direction | speed MPH | gust MPH | rain 1hr in | rain 24hr in | rain mn in | humidity % | barometer mb |
| 20260506170111 | 53 | 223 | 4.0 | 11.0 | 0.06 | 0.10 | 0.10 | 89 | 1008.8 |
| 20260506165111 | 53 | 218 | 5.0 | 12.0 | 0.06 | 0.09 | 0.09 | 89 | 1008.7 |
| 20260506164111 | 53 | 164 | 6.0 | 15.0 | 0.06 | 0.09 | 0.09 | 89 | 1008.7 |
| 20260506163111 | 53 | 197 | 6.0 | 12.0 | 0.06 | 0.08 | 0.08 | 89 | 1008.8 |
| 20260506162110 | 53 | 254 | 5.0 | 14.0 | 0.05 | 0.07 | 0.07 | 88 | 1008.7 |
| 20260506161111 | 53 | 220 | 4.0 | 11.0 | 0.05 | 0.06 | 0.06 | 88 | 1008.9 |
| 20260506160109 | 53 | 246 | 3.0 | 10.0 | 0.03 | 0.05 | 0.05 | 87 | 1008.8 |
| 20260506155109 | 53 | 244 | 2.0 | 7.0 | 0.02 | 0.04 | 0.04 | 87 | 1008.7 |
| 20260506153109 | 53 | 219 | 5.0 | 10.0 | 0.01 | 0.02 | 0.02 | 86 | 1008.6 |
| 20260506152109 | 53 | 251 | 4.0 | 12.0 | 0.01 | 0.02 | 0.02 | 85 | 1008.6 |
| 20260506150109 | 54 | 250 | 3.0 | 14.0 | 0.00 | 0.02 | 0.02 | 84 | 1008.4 |
| 20260506144110 | 54 | 204 | 7.0 | 16.0 | 0.01 | 0.02 | 0.02 | 84 | 1008.4 |
| 20260506143110 | 54 | 226 | 5.0 | 10.0 | 0.01 | 0.02 | 0.02 | 84 | 1008.4 |
| 20260506142110 | 55 | 211 | 6.0 | 15.0 | 0.01 | 0.02 | 0.02 | 85 | 1008.3 |
| 20260506141110 | 55 | 262 | 5.0 | 14.0 | 0.01 | 0.02 | 0.02 | 84 | 1008.3 |
| 20260506140110 | 55 | 169 | 7.0 | 14.0 | 0.01 | 0.02 | 0.02 | 84 | 1008.2 |
| 20260506135110 | 55 | 190 | 7.0 | 16.0 | 0.01 | 0.06 | 0.02 | 84 | 1008.2 |
| 20260506134109 | 55 | 249 | 7.0 | 16.0 | 0.00 | 0.05 | 0.01 | 85 | 1008.2 |
| 20260506133109 | 55 | 221 | 5.0 | 15.0 | 0.00 | 0.05 | 0.01 | 84 | 1008.2 |
| 20260506132114 | 55 | 270 | 7.0 | 19.0 | 0.00 | 0.05 | 0.01 | 84 | 1008.0 |
| 20260506131115 | 56 | 231 | 7.0 | 14.0 | 0.00 | 0.05 | 0.01 | 84 | 1008.0 |
| 20260506130114 | 56 | 218 | 7.0 | 16.0 | 0.00 | 0.05 | 0.01 | 83 | 1008.0 |
| 20260506125114 | 56 | 254 | 7.0 | 18.0 | 0.00 | 0.05 | 0.01 | 83 | 1007.7 |
| 20260506123114 | 57 | 251 | 7.0 | 16.0 | 0.01 | 0.05 | 0.01 | 84 | 1007.5 |
| 20260506122114 | 57 | 255 | 10.0 | 20.0 | 0.01 | 0.05 | 0.01 | 84 | 1007.3 |
| 20260506121114 | 58 | 253 | 6.0 | 18.0 | 0.01 | 0.05 | 0.01 | 85 | 1007.4 |
| 20260506120114 | 58 | 228 | 7.0 | 17.0 | 0.01 | 0.05 | 0.01 | 84 | 1007.3 |
| 20260506114114 | 58 | 244 | 5.0 | 11.0 | 0.00 | 0.04 | 0.00 | 83 | 1007.2 |
| 20260506113114 | 59 | 185 | 4.0 | 10.0 | 0.00 | 0.04 | 0.00 | 83 | 1007.2 |
| 20260506112114 | 59 | 232 | 7.0 | 16.0 | 0.00 | 0.04 | 0.00 | 81 | 1007.1 |
| 20260506111114 | 59 | 268 | 9.0 | 18.0 | 0.00 | 0.04 | 0.00 | 78 | 1007.0 |
| 20260506110114 | 59 | 237 | 5.0 | 12.0 | 0.00 | 0.04 | 0.00 | 78 | 1007.1 |
| 20260506105114 | 59 | 194 | 5.0 | 15.0 | 0.00 | 0.04 | 0.00 | 79 | 1007.1 |
| 20260506104114 | 59 | 254 | 5.0 | 14.0 | 0.00 | 0.04 | 0.00 | 78 | 1007.0 |
| 20260506103114 | 59 | 228 | 3.0 | 12.0 | 0.00 | 0.04 | 0.00 | 78 | 1006.9 |
| 20260506101116 | 59 | 214 | 5.0 | 10.0 | 0.00 | 0.04 | 0.00 | 78 | 1006.9 |
| 20260506095114 | 59 | 265 | 4.0 | 10.0 | 0.00 | 0.04 | 0.00 | 78 | 1006.8 |
| 20260506092114 | 59 | 265 | 4.0 | 11.0 | 0.00 | 0.04 | 0.00 | 77 | 1006.8 |
| 20260506091114 | 59 | 251 | 5.0 | 12.0 | 0.00 | 0.04 | 0.00 | 77 | 1006.8 |
| 20260506090115 | 60 | 211 | 4.0 | 12.0 | 0.00 | 0.04 | 0.00 | 76 | 1006.8 |
| 20260506085114 | 60 | 231 | 5.0 | 11.0 | 0.00 | 0.04 | 0.00 | 76 | 1006.8 |
| 20260506084114 | 60 | 242 | 7.0 | 12.0 | 0.00 | 0.04 | 0.00 | 76 | 1006.5 |
| 20260506082114 | 60 | 250 | 3.0 | 10.0 | 0.00 | 0.04 | 0.00 | 77 | 1006.4 |
| 20260506081114 | 59 | 216 | 5.0 | 16.0 | 0.00 | 0.04 | 0.00 | 77 | 1006.5 |
| 20260506080114 | 59 | 211 | 5.0 | 12.0 | 0.00 | 0.04 | 0.00 | 76 | 1006.5 |
| 20260506073114 | 59 | 218 | 2.0 | 7.0 | 0.00 | 0.04 | 0.00 | 78 | 1006.5 |
| 20260506072114 | 58 | 213 | 3.0 | 9.0 | 0.00 | 0.04 | 0.00 | 79 | 1006.4 |
| 20260506071114 | 58 | 210 | 3.0 | 10.0 | 0.00 | 0.04 | 0.00 | 79 | 1006.4 |
| 20260506070114 | 58 | 225 | 5.0 | 12.0 | 0.00 | 0.04 | 0.00 | 79 | 1006.4 |
| 20260506060114 | 56 | 251 | 0.0 | 2.0 | 0.00 | 0.04 | 0.00 | 83 | 1006.7 |
| 20260506051114 | 54 | 239 | 0.0 | 2.0 | 0.00 | 0.04 | 0.00 | 84 | 1006.5 |
| 20260506050114 | 54 | 250 | 0.0 | 3.0 | 0.00 | 0.04 | 0.00 | 85 | 1006.7 |
| 20260506044114 | 53 | 260 | 1.0 | 6.0 | 0.00 | 0.05 | 0.00 | 85 | 1006.8 |
| 20260506043114 | 53 | 240 | 0.0 | 1.0 | 0.00 | 0.05 | 0.00 | 85 | 1006.9 |
| 20260506042114 | 53 | 243 | 1.0 | 3.0 | 0.00 | 0.05 | 0.00 | 85 | 1006.9 |
| 20260506040114 | 53 | 218 | 1.0 | 6.0 | 0.00 | 0.05 | 0.00 | 85 | 1006.9 |
| 20260506035114 | 53 | 235 | 1.0 | 3.0 | 0.00 | 0.05 | 0.00 | 85 | 1006.9 |
| 20260506034114 | 53 | 257 | 1.0 | 8.0 | 0.00 | 0.05 | 0.00 | 85 | 1006.8 |
| 20260506033114 | 53 | 235 | 0.0 | 3.0 | 0.00 | 0.05 | 0.00 | 84 | 1006.9 |
| 20260506032114 | 53 | 257 | 0.0 | 1.0 | 0.00 | 0.05 | 0.00 | 84 | 1006.8 |
| 20260506031114 | 53 | 267 | 0.0 | 2.0 | 0.00 | 0.05 | 0.00 | 85 | 1006.9 |
| 20260506030114 | 52 | 248 | 0.0 | 2.0 | 0.00 | 0.05 | 0.00 | 87 | 1007.0 |
| 20260506024114 | 52 | 257 | 0.0 | 0.0 | 0.00 | 0.05 | 0.00 | 87 | 1007.2 |
| 20260506023114 | 52 | 253 | 0.0 | 2.0 | 0.00 | 0.05 | 0.00 | 87 | 1007.2 |
| 20260506020114 | 53 | 263 | 1.0 | 5.0 | 0.00 | 0.05 | 0.00 | 87 | 1007.5 |
| 20260506015113 | 53 | 223 | 2.0 | 6.0 | 0.00 | 0.05 | 0.00 | 88 | 1007.6 |
| 20260506014113 | 52 | 249 | 1.0 | 5.0 | 0.00 | 0.05 | 0.00 | 89 | 1007.7 |
| 20260506013113 | 52 | 247 | 0.0 | 3.0 | 0.00 | 0.05 | 0.00 | 89 | 1007.9 |
| 20260506012113 | 52 | 234 | 0.0 | 2.0 | 0.00 | 0.05 | 0.00 | 89 | 1008.1 |
| 20260506010113 | 52 | 232 | 1.0 | 3.0 | 0.00 | 0.05 | 0.00 | 89 | 1008.0 |
| 20260506005113 | 52 | 246 | 1.0 | 6.0 | 0.00 | 0.05 | 0.00 | 89 | 1007.9 |
| 20260506003113 | 52 | 255 | 0.0 | 1.0 | 0.00 | 0.05 | 0.00 | 89 | 1008.0 |
| 20260506002113 | 52 | 255 | 0.0 | 1.0 | 0.00 | 0.05 | 0.00 | 88 | 1008.2 |
| 20260506001112 | 53 | 239 | 0.0 | 2.0 | 0.00 | 0.05 | 0.00 | 87 | 1008.3 |
| 20260506000113 | 53 | 241 | 0.0 | 1.0 | 0.00 | 0.05 | 0.00 | 87 | 1008.5 |
| 20260505235112 | 53 | 228 | 0.0 | 3.0 | 0.00 | 0.05 | 0.00 | 86 | 1008.5 |
| 20260505234112 | 53 | 250 | 0.0 | 5.0 | 0.00 | 0.05 | 0.00 | 86 | 1008.6 |
| 20260505233112 | 53 | 255 | 1.0 | 7.0 | 0.00 | 0.05 | 0.00 | 86 | 1008.7 |
| 20260505232112 | 53 | 248 | 0.0 | 1.0 | 0.00 | 0.05 | 0.00 | 86 | 1008.8 |
| 20260505231112 | 53 | 260 | 0.0 | 1.0 | 0.00 | 0.05 | 0.00 | 85 | 1008.7 |
| 20260505230112 | 54 | 261 | 0.0 | 1.0 | 0.00 | 0.05 | 0.00 | 85 | 1008.7 |
| 20260505225111 | 54 | 261 | 0.0 | 1.0 | 0.00 | 0.05 | 0.00 | 85 | 1008.8 |
| 20260505224112 | 54 | 261 | 0.0 | 0.0 | 0.00 | 0.05 | 0.00 | 85 | 1008.9 |
| 20260505223111 | 54 | 261 | 0.0 | 0.0 | 0.00 | 0.05 | 0.00 | 85 | 1008.8 |
| 20260505222111 | 54 | 261 | 0.0 | 0.0 | 0.00 | 0.05 | 0.00 | 85 | 1008.9 |
| 20260505221111 | 54 | 261 | 0.0 | 1.0 | 0.00 | 0.05 | 0.00 | 84 | 1009.0 |
| 20260505215111 | 55 | 230 | 1.0 | 5.0 | 0.00 | 0.05 | 0.05 | 84 | 1009.1 |
| 20260505214111 | 56 | 254 | 0.0 | 5.0 | 0.00 | 0.05 | 0.05 | 83 | 1008.9 |
| 20260505213111 | 56 | 247 | 2.0 | 6.0 | 0.00 | 0.05 | 0.05 | 82 | 1008.9 |
| 20260505212110 | 56 | 268 | 0.0 | 3.0 | 0.00 | 0.05 | 0.05 | 82 | 1008.9 |
| 20260505211111 | 57 | 273 | 0.0 | 5.0 | 0.00 | 0.05 | 0.05 | 82 | 1008.9 |
| 20260505210110 | 57 | 262 | 1.0 | 10.0 | 0.00 | 0.05 | 0.05 | 83 | 1008.8 |
| 20260505205110 | 57 | 232 | 1.0 | 7.0 | 0.00 | 0.05 | 0.05 | 83 | 1009.0 |
| 20260505201115 | 57 | 244 | 0.0 | 3.0 | 0.00 | 0.05 | 0.05 | 85 | 1008.6 |
| 20260505200115 | 57 | 252 | 0.0 | 3.0 | 0.00 | 0.05 | 0.05 | 84 | 1008.6 |
| 20260505195114 | 57 | 252 | 1.0 | 5.0 | 0.00 | 0.05 | 0.05 | 84 | 1008.5 |
| 20260505194114 | 57 | 176 | 3.0 | 8.0 | 0.00 | 0.05 | 0.05 | 84 | 1008.6 |
| 20260505193114 | 57 | 204 | 2.0 | 7.0 | 0.00 | 0.05 | 0.05 | 83 | 1008.5 |
| 20260505192114 | 58 | 239 | 1.0 | 3.0 | 0.00 | 0.05 | 0.05 | 82 | 1008.4 |
| 20260505191114 | 58 | 249 | 0.0 | 2.0 | 0.00 | 0.05 | 0.05 | 82 | 1008.3 |
| 20260505185114 | 59 | 238 | 2.0 | 7.0 | 0.00 | 0.05 | 0.05 | 81 | 1008.2 |
| 20260505184114 | 59 | 207 | 2.0 | 7.0 | 0.00 | 0.05 | 0.05 | 82 | 1007.9 |
| 20260505183114 | 60 | 223 | 1.0 | 7.0 | 0.00 | 0.05 | 0.05 | 82 | 1007.9 |
| 20260505182114 | 60 | 221 | 1.0 | 8.0 | 0.00 | 0.05 | 0.05 | 82 | 1007.8 |
| 20260505180113 | 61 | 230 | 3.0 | 8.0 | 0.00 | 0.05 | 0.05 | 81 | 1007.9 |
| 20260505175113 | 62 | 211 | 3.0 | 9.0 | 0.00 | 0.06 | 0.05 | 80 | 1007.7 |
| 20260505173113 | 62 | 245 | 3.0 | 7.0 | 0.00 | 0.06 | 0.05 | 78 | 1007.7 |
| 20260505172113 | 62 | 254 | 2.0 | 7.0 | 0.00 | 0.06 | 0.05 | 77 | 1007.6 |
| 20260505171113 | 63 | 222 | 1.0 | 9.0 | 0.00 | 0.06 | 0.05 | 77 | 1007.7 |